| time (UTC) | temp C | wind direction | speed KPH | gust KPH | rain 1hr cm | rain 24hr cm | rain mn cm | humidity % | barometer mb |
| 20260508175312 | 13 | 270 | 30.6 | 49.9 | 0.00 | 0.00 | 0.00 | 37 | 1006.9 |
| 20260508174803 | 13 | 270 | 33.8 | 48.3 | 0.00 | 0.00 | 0.00 | 36 | 1006.8 |
| 20260508174251 | 13 | 225 | 27.4 | 61.2 | 0.00 | 0.00 | 0.00 | 38 | 1007.0 |
| 20260508173750 | 13 | 270 | 32.2 | 61.2 | 0.00 | 0.00 | 0.00 | 37 | 1007.0 |
| 20260508173232 | 13 | 225 | 38.6 | 57.9 | 0.00 | 0.00 | 0.00 | 38 | 1006.9 |
| 20260508172722 | 13 | 293 | 37.0 | 57.9 | 0.00 | 0.00 | 0.00 | 37 | 1006.9 |
| 20260508171702 | 12 | 225 | 35.4 | 54.7 | 0.00 | 0.00 | 0.00 | 40 | 1006.9 |
| 20260508171154 | 12 | 203 | 32.2 | 54.7 | 0.00 | 0.00 | 0.00 | 40 | 1007.0 |
| 20260508170640 | 13 | 248 | 30.6 | 48.3 | 0.00 | 0.00 | 0.00 | 42 | 1007.1 |
| 20260508170131 | 13 | 248 | 33.8 | 49.9 | 0.00 | 0.00 | 0.00 | 41 | 1006.9 |
| 20260508165620 | 12 | 270 | 37.0 | 54.7 | 0.00 | 0.00 | 0.00 | 41 | 1006.9 |
| 20260508165110 | 12 | 293 | 40.2 | 54.7 | 0.00 | 0.00 | 0.00 | 43 | 1007.1 |
| 20260508164600 | 12 | 293 | 33.8 | 51.5 | 0.00 | 0.00 | 0.00 | 41 | 1007.0 |
| 20260508164049 | 12 | 225 | 41.8 | 51.5 | 0.00 | 0.00 | 0.00 | 43 | 1007.2 |
| 20260508163030 | 12 | 248 | 33.8 | 61.2 | 0.00 | 0.00 | 0.00 | 43 | 1007.4 |
| 20260508162520 | 12 | 225 | 48.3 | 57.9 | 0.00 | 0.00 | 0.00 | 43 | 1007.4 |
| 20260508162010 | 12 | 270 | 32.2 | 54.7 | 0.00 | 0.00 | 0.00 | 43 | 1007.6 |
| 20260508161459 | 12 | 293 | 35.4 | 49.9 | 0.00 | 0.00 | 0.00 | 44 | 1007.7 |
| 20260508160949 | 12 | 203 | 35.4 | 49.9 | 0.00 | 0.00 | 0.00 | 44 | 1007.6 |
| 20260508155929 | 12 | 248 | 29.0 | 43.5 | 0.00 | 0.00 | 0.00 | 45 | 1007.9 |
| 20260508155419 | 12 | 225 | 24.1 | 49.9 | 0.00 | 0.00 | 0.00 | 46 | 1007.9 |
| 20260508154909 | 12 | 270 | 27.4 | 51.5 | 0.00 | 0.00 | 0.00 | 47 | 1007.9 |
| 20260508154358 | 11 | 270 | 30.6 | 51.5 | 0.00 | 0.00 | 0.00 | 47 | 1008.0 |
| 20260508153848 | 11 | 225 | 37.0 | 49.9 | 0.00 | 0.00 | 0.00 | 47 | 1008.0 |
| 20260508153339 | 12 | 248 | 37.0 | 57.9 | 0.00 | 0.00 | 0.00 | 49 | 1008.1 |
| 20260508152318 | 11 | 225 | 48.3 | 57.9 | 0.00 | 0.00 | 0.00 | 49 | 1008.3 |
| 20260508151807 | 11 | 225 | 24.1 | 57.9 | 0.00 | 0.00 | 0.00 | 50 | 1008.4 |
| 20260508151258 | 11 | 225 | 38.6 | 57.9 | 0.00 | 0.00 | 0.00 | 51 | 1008.4 |
| 20260508150747 | 11 | 248 | 35.4 | 57.9 | 0.00 | 0.00 | 0.00 | 51 | 1008.5 |
| 20260508150237 | 11 | 248 | 37.0 | 57.9 | 0.00 | 0.00 | 0.00 | 52 | 1008.6 |
| 20260508145727 | 11 | 225 | 46.7 | 54.7 | 0.00 | 0.00 | 0.00 | 53 | 1008.5 |
| 20260508145216 | 11 | 225 | 40.2 | 54.7 | 0.00 | 0.00 | 0.00 | 53 | 1008.5 |
| 20260508144715 | 11 | 225 | 33.8 | 57.9 | 0.00 | 0.00 | 0.00 | 52 | 1008.5 |
| 20260508144157 | 11 | 225 | 37.0 | 57.9 | 0.00 | 0.00 | 0.00 | 54 | 1008.7 |
| 20260508143646 | 10 | 225 | 38.6 | 61.2 | 0.00 | 0.00 | 0.00 | 53 | 1008.8 |
| 20260508143136 | 10 | 225 | 38.6 | 64.4 | 0.00 | 0.00 | 0.00 | 54 | 1008.7 |
| 20260508142626 | 10 | 225 | 46.7 | 64.4 | 0.00 | 0.00 | 0.00 | 54 | 1008.8 |
| 20260508142117 | 10 | 225 | 35.4 | 57.9 | 0.00 | 0.00 | 0.00 | 55 | 1008.8 |
| 20260508141056 | 10 | 225 | 38.6 | 62.8 | 0.00 | 0.00 | 0.00 | 56 | 1008.8 |
| 20260508140545 | 10 | 248 | 38.6 | 62.8 | 0.00 | 0.00 | 0.00 | 55 | 1008.7 |
| 20260508140035 | 10 | 225 | 43.5 | 57.9 | 0.00 | 0.00 | 0.00 | 55 | 1008.7 |
| 20260508135526 | 10 | 225 | 43.5 | 57.9 | 0.00 | 0.00 | 0.00 | 55 | 1008.6 |
| 20260508134505 | 9 | 225 | 38.6 | 57.9 | 0.00 | 0.00 | 0.00 | 55 | 1008.6 |
| 20260508133955 | 9 | 203 | 46.7 | 62.8 | 0.00 | 0.00 | 0.00 | 55 | 1008.8 |
| 20260508133445 | 9 | 225 | 45.1 | 62.8 | 0.00 | 0.00 | 0.00 | 56 | 1008.5 |
| 20260508132424 | 9 | 225 | 41.8 | 61.2 | 0.00 | 0.00 | 0.00 | 57 | 1008.5 |
| 20260508131915 | 9 | 203 | 48.3 | 57.9 | 0.00 | 0.00 | 0.00 | 57 | 1008.7 |
| 20260508131404 | 9 | 203 | 33.8 | 57.9 | 0.00 | 0.00 | 0.00 | 57 | 1008.6 |
| 20260508130853 | 9 | 203 | 35.4 | 54.7 | 0.00 | 0.00 | 0.00 | 58 | 1008.5 |
| 20260508130343 | 8 | 203 | 37.0 | 54.7 | 0.00 | 0.00 | 0.00 | 58 | 1008.5 |
| 20260508125833 | 8 | 225 | 45.1 | 54.7 | 0.00 | 0.00 | 0.00 | 58 | 1008.3 |
| 20260508125323 | 8 | 225 | 37.0 | 57.9 | 0.00 | 0.00 | 0.00 | 58 | 1008.5 |
| 20260508124814 | 8 | 203 | 35.4 | 57.9 | 0.00 | 0.00 | 0.00 | 59 | 1008.3 |
| 20260508124303 | 8 | 203 | 45.1 | 54.7 | 0.00 | 0.00 | 0.00 | 59 | 1008.4 |
| 20260508123754 | 8 | 225 | 38.6 | 54.7 | 0.00 | 0.00 | 0.00 | 60 | 1008.4 |
| 20260508123243 | 8 | 203 | 41.8 | 51.5 | 0.00 | 0.00 | 0.00 | 61 | 1008.4 |
| 20260508122223 | 8 | 225 | 43.5 | 54.7 | 0.00 | 0.00 | 0.00 | 62 | 1008.5 |
| 20260508121712 | 8 | 225 | 43.5 | 54.7 | 0.00 | 0.00 | 0.00 | 62 | 1008.4 |
| 20260508121202 | 8 | 225 | 37.0 | 46.7 | 0.00 | 0.00 | 0.00 | 63 | 1008.7 |
| 20260508120652 | 8 | 225 | 33.8 | 46.7 | 0.00 | 0.00 | 0.00 | 64 | 1008.6 |
| 20260508120142 | 8 | 225 | 37.0 | 46.7 | 0.00 | 0.00 | 0.00 | 64 | 1008.6 |
| 20260508115636 | 7 | 225 | 25.7 | 35.4 | 0.00 | 0.00 | 0.00 | 67 | 1008.7 |
| 20260508115121 | 7 | 203 | 12.9 | 33.8 | 0.00 | 0.00 | 0.00 | 68 | 1008.6 |
| 20260508114612 | 7 | 225 | 24.1 | 33.8 | 0.00 | 0.00 | 0.00 | 68 | 1008.6 |
| 20260508113551 | 7 | 225 | 22.5 | 35.4 | 0.00 | 0.00 | 0.00 | 68 | 1008.4 |
| 20260508113043 | 6 | 248 | 19.3 | 35.4 | 0.00 | 0.00 | 0.00 | 68 | 1008.5 |
| 20260508112530 | 6 | 248 | 17.7 | 33.8 | 0.00 | 0.00 | 0.00 | 69 | 1008.3 |
| 20260508112021 | 6 | 248 | 19.3 | 33.8 | 0.00 | 0.00 | 0.00 | 68 | 1008.2 |
| 20260508111000 | 6 | 203 | 19.3 | 33.8 | 0.00 | 0.00 | 0.00 | 68 | 1008.2 |
| 20260508110450 | 6 | 225 | 16.1 | 35.4 | 0.00 | 0.00 | 0.00 | 68 | 1008.0 |
| 20260508105941 | 6 | 248 | 16.1 | 35.4 | 0.00 | 0.00 | 0.00 | 68 | 1007.9 |
| 20260508105430 | 7 | 248 | 24.1 | 35.4 | 0.00 | 0.00 | 0.00 | 68 | 1008.0 |
| 20260508104920 | 7 | 225 | 24.1 | 35.4 | 0.00 | 0.00 | 0.00 | 67 | 1007.8 |
| 20260508104410 | 7 | 293 | 17.7 | 40.2 | 0.00 | 0.00 | 0.00 | 67 | 1007.9 |
| 20260508103900 | 7 | 225 | 27.4 | 40.2 | 0.00 | 0.00 | 0.00 | 66 | 1007.8 |
| 20260508103349 | 7 | 248 | 17.7 | 38.6 | 0.00 | 0.00 | 0.00 | 66 | 1008.0 |
| 20260508102839 | 7 | 270 | 16.1 | 38.6 | 0.00 | 0.00 | 0.00 | 66 | 1007.9 |
| 20260508102329 | 7 | 248 | 22.5 | 38.6 | 0.00 | 0.00 | 0.00 | 66 | 1007.9 |
| 20260508101309 | 7 | 225 | 24.1 | 43.5 | 0.00 | 0.00 | 0.00 | 66 | 1007.9 |
| 20260508100249 | 7 | 225 | 20.9 | 35.4 | 0.00 | 0.00 | 0.00 | 65 | 1007.7 |
| 20260508095738 | 7 | 225 | 17.7 | 38.6 | 0.00 | 0.00 | 0.00 | 66 | 1007.7 |
| 20260508095229 | 7 | 225 | 17.7 | 38.6 | 0.00 | 0.00 | 0.00 | 65 | 1007.6 |
| 20260508094725 | 7 | 248 | 20.9 | 37.0 | 0.00 | 0.00 | 0.00 | 66 | 1007.5 |
| 20260508094208 | 7 | 225 | 14.5 | 32.2 | 0.00 | 0.00 | 0.00 | 66 | 1007.5 |
| 20260508093658 | 7 | 248 | 17.7 | 35.4 | 0.00 | 0.00 | 0.00 | 66 | 1007.4 |
| 20260508093148 | 7 | 225 | 24.1 | 35.4 | 0.00 | 0.00 | 0.00 | 66 | 1007.1 |
| 20260508092638 | 7 | 248 | 19.3 | 33.8 | 0.00 | 0.00 | 0.00 | 67 | 1007.1 |
| 20260508092128 | 7 | 225 | 17.7 | 33.8 | 0.00 | 0.00 | 0.00 | 66 | 1007.1 |
| 20260508091618 | 7 | 225 | 17.7 | 33.8 | 0.00 | 0.00 | 0.00 | 66 | 1007.0 |
| 20260508091107 | 7 | 248 | 14.5 | 33.8 | 0.00 | 0.00 | 0.00 | 66 | 1007.0 |
| 20260508090600 | 7 | 225 | 19.3 | 33.8 | 0.00 | 0.00 | 0.00 | 66 | 1007.0 |
| 20260508085538 | 6 | 225 | 12.9 | 33.8 | 0.00 | 0.00 | 0.00 | 66 | 1007.0 |
| 20260508085027 | 6 | 270 | 16.1 | 33.8 | 0.00 | 0.00 | 0.00 | 65 | 1006.8 |
| 20260508084518 | 6 | 225 | 19.3 | 33.8 | 0.00 | 0.00 | 0.00 | 65 | 1006.9 |
| 20260508084007 | 6 | 270 | 17.7 | 35.4 | 0.00 | 0.00 | 0.00 | 66 | 1006.8 |
| 20260508083456 | 6 | 225 | 14.5 | 35.4 | 0.00 | 0.00 | 0.00 | 66 | 1006.8 |
| 20260508082946 | 6 | 248 | 19.3 | 35.4 | 0.00 | 0.00 | 0.00 | 66 | 1006.8 |
| 20260508081926 | 6 | 270 | 17.7 | 33.8 | 0.00 | 0.00 | 0.00 | 65 | 1006.8 |
| 20260508080906 | 6 | 248 | 12.9 | 33.8 | 0.00 | 0.00 | 0.00 | 65 | 1006.7 |
| 20260508080356 | 6 | 248 | 14.5 | 33.8 | 0.00 | 0.00 | 0.00 | 65 | 1006.6 |
| 20260508075846 | 6 | 225 | 17.7 | 33.8 | 0.00 | 0.00 | 0.00 | 64 | 1006.7 |
| 20260508075336 | 7 | 293 | 24.1 | 35.4 | 0.00 | 0.00 | 0.00 | 64 | 1006.7 |
| 20260508074825 | 6 | 270 | 19.3 | 35.4 | 0.00 | 0.00 | 0.00 | 64 | 1006.7 |
| 20260508074315 | 6 | 270 | 14.5 | 40.2 | 0.00 | 0.00 | 0.00 | 64 | 1006.7 |
| 20260508073805 | 6 | 225 | 17.7 | 40.2 | 0.00 | 0.00 | 0.00 | 65 | 1006.6 |
| 20260508073255 | 6 | 248 | 14.5 | 38.6 | 0.00 | 0.00 | 0.00 | 64 | 1006.6 |
| 20260508072234 | 6 | 225 | 25.7 | 43.5 | 0.00 | 0.00 | 0.00 | 65 | 1006.5 |
| 20260508071724 | 6 | 203 | 22.5 | 37.0 | 0.00 | 0.00 | 0.00 | 65 | 1006.6 |
| 20260508071215 | 6 | 248 | 22.5 | 37.0 | 0.00 | 0.00 | 0.00 | 64 | 1006.6 |
| 20260508070154 | 6 | 248 | 16.1 | 38.6 | 0.00 | 0.00 | 0.00 | 64 | 1006.8 |
| 20260508065644 | 6 | 270 | 16.1 | 38.6 | 0.00 | 0.00 | 0.00 | 64 | 1006.7 |
| 20260508065133 | 7 | 248 | 17.7 | 33.8 | 0.00 | 0.00 | 0.00 | 63 | 1006.6 |
| 20260508064625 | 6 | 248 | 19.3 | 33.8 | 0.00 | 0.00 | 0.00 | 63 | 1006.7 |
| 20260508064113 | 7 | 248 | 17.7 | 38.6 | 0.00 | 0.00 | 0.00 | 61 | 1006.6 |
| 20260508063603 | 7 | 248 | 22.5 | 38.6 | 0.00 | 0.00 | 0.00 | 61 | 1006.6 |
| 20260508062547 | 7 | 293 | 17.7 | 35.4 | 0.00 | 0.00 | 0.00 | 61 | 1006.7 |
| 20260508061013 | 7 | 248 | 12.9 | 33.8 | 0.00 | 0.00 | 0.00 | 62 | 1006.8 |
| 20260508060502 | 7 | 248 | 17.7 | 0.0 | 0.00 | 0.00 | 0.00 | 62 | 1006.9 |
| 20260508060245 | 7 | 248 | 17.7 | 0.0 | 0.00 | 0.00 | 0.00 | 63 | 1006.9 |
| 20260508055613 | 7 | 248 | 17.7 | 32.2 | 0.00 | 0.00 | 0.00 | 65 | 1007.0 |
| 20260508055101 | 7 | 225 | 22.5 | 33.8 | 0.00 | 0.00 | 0.00 | 65 | 1007.1 |
| 20260508054552 | 7 | 248 | 16.1 | 33.8 | 0.00 | 0.00 | 0.00 | 66 | 1006.9 |
| 20260508054040 | 7 | 225 | 12.9 | 32.2 | 0.00 | 0.00 | 0.00 | 67 | 1007.0 |
| 20260508053530 | 7 | 248 | 16.1 | 32.2 | 0.00 | 0.00 | 0.00 | 69 | 1007.0 |
| 20260508053021 | 7 | 203 | 17.7 | 32.2 | 0.00 | 0.00 | 0.00 | 70 | 1006.9 |
| 20260508052510 | 7 | 293 | 14.5 | 33.8 | 0.00 | 0.00 | 0.00 | 70 | 1007.0 |
| 20260508051449 | 7 | 248 | 24.1 | 40.2 | 0.00 | 0.00 | 0.00 | 70 | 1007.0 |
| 20260508050940 | 8 | 225 | 24.1 | 40.2 | 0.00 | 0.00 | 0.00 | 70 | 1007.1 |
| 20260508050430 | 8 | 225 | 24.1 | 38.6 | 0.00 | 0.00 | 0.00 | 71 | 1007.1 |
| 20260508045931 | 8 | 225 | 17.7 | 38.6 | 0.00 | 0.00 | 0.00 | 71 | 1007.1 |
| 20260508045410 | 8 | 225 | 17.7 | 32.2 | 0.00 | 0.00 | 0.00 | 72 | 1007.2 |
| 20260508044859 | 8 | 248 | 16.1 | 32.2 | 0.00 | 0.00 | 0.00 | 73 | 1007.2 |
| 20260508044349 | 8 | 225 | 17.7 | 32.2 | 0.00 | 0.00 | 0.00 | 73 | 1007.0 |
| 20260508043839 | 8 | 248 | 17.7 | 32.2 | 0.00 | 0.00 | 0.00 | 74 | 1006.9 |
| 20260508043329 | 8 | 203 | 20.9 | 43.5 | 0.00 | 0.00 | 0.00 | 74 | 1006.9 |
| 20260508042310 | 8 | 225 | 30.6 | 40.2 | 0.00 | 0.00 | 0.00 | 73 | 1006.8 |
| 20260508041801 | 8 | 248 | 24.1 | 40.2 | 0.00 | 0.00 | 0.00 | 74 | 1006.8 |
| 20260508041249 | 8 | 248 | 19.3 | 35.4 | 0.00 | 0.00 | 0.00 | 75 | 1006.9 |
| 20260508040738 | 8 | 203 | 19.3 | 35.4 | 0.00 | 0.00 | 0.00 | 75 | 1006.9 |
| 20260508040227 | 8 | 225 | 16.1 | 32.2 | 0.00 | 0.00 | 0.00 | 76 | 1006.8 |
| 20260508035717 | 8 | 248 | 16.1 | 32.2 | 0.00 | 0.00 | 0.00 | 77 | 1006.6 |
| 20260508034146 | 8 | 270 | 12.9 | 33.8 | 0.00 | 0.00 | 0.00 | 80 | 1006.5 |
| 20260508033637 | 8 | 293 | 14.5 | 32.2 | 0.00 | 0.00 | 0.00 | 80 | 1006.5 |
| 20260508033127 | 8 | 270 | 16.1 | 37.0 | 0.00 | 0.00 | 0.00 | 80 | 1006.4 |
| 20260508032621 | 8 | 293 | 12.9 | 37.0 | 0.00 | 0.00 | 0.00 | 80 | 1006.3 |
| 20260508032107 | 8 | 270 | 12.9 | 32.2 | 0.00 | 0.00 | 0.00 | 79 | 1006.3 |
| 20260508031557 | 9 | 248 | 14.5 | 33.8 | 0.00 | 0.00 | 0.00 | 78 | 1006.3 |
| 20260508031047 | 9 | 203 | 19.3 | 33.8 | 0.00 | 0.00 | 0.00 | 78 | 1006.1 |
| 20260508030027 | 9 | 248 | 14.5 | 35.4 | 0.00 | 0.00 | 0.00 | 78 | 1006.2 |
| 20260508025516 | 9 | 248 | 19.3 | 35.4 | 0.00 | 0.00 | 0.94 | 79 | 1006.2 |
| 20260508025021 | 9 | 248 | 9.7 | 37.0 | 0.00 | 0.00 | 0.94 | 79 | 1006.2 |
| 20260508024455 | 9 | 225 | 12.9 | 37.0 | 0.00 | 0.00 | 0.94 | 79 | 1006.2 |
| 20260508023945 | 9 | 225 | 19.3 | 38.6 | 0.00 | 0.00 | 0.94 | 79 | 1006.2 |
| 20260508023440 | 9 | 225 | 12.9 | 38.6 | 0.00 | 0.00 | 0.94 | 79 | 1006.1 |
| 20260508022415 | 10 | 225 | 12.9 | 20.9 | 0.00 | 0.00 | 0.94 | 79 | 1006.1 |
| 20260508021904 | 10 | 225 | 8.0 | 17.7 | 0.00 | 0.00 | 0.94 | 79 | 1006.0 |
| 20260508021355 | 10 | 225 | 8.0 | 27.4 | 0.00 | 0.00 | 0.94 | 78 | 1006.0 |
| 20260508020853 | 10 | 225 | 8.0 | 33.8 | 0.00 | 0.00 | 0.94 | 78 | 1006.1 |
| 20260508020335 | 10 | 225 | 16.1 | 33.8 | 0.00 | 0.00 | 0.94 | 78 | 1006.0 |
| 20260508015824 | 11 | 225 | 17.7 | 29.0 | 0.00 | 0.00 | 0.94 | 78 | 1006.2 |
| 20260508015314 | 11 | 270 | 8.0 | 24.1 | 0.00 | 0.00 | 0.94 | 78 | 1006.2 |
| 20260508014804 | 11 | 225 | 11.3 | 27.4 | 0.00 | 0.00 | 0.94 | 78 | 1006.2 |
| 20260508014255 | 11 | 225 | 14.5 | 33.8 | 0.00 | 0.00 | 0.94 | 77 | 1006.2 |
| 20260508013744 | 11 | 225 | 16.1 | 38.6 | 0.00 | 0.00 | 0.94 | 77 | 1006.4 |
| 20260508013234 | 11 | 225 | 17.7 | 38.6 | 0.00 | 0.00 | 0.94 | 77 | 1006.4 |
| 20260508011704 | 11 | 225 | 16.1 | 22.5 | 0.00 | 0.00 | 0.94 | 76 | 1006.4 |
| 20260508011154 | 11 | 225 | 12.9 | 27.4 | 0.00 | 0.00 | 0.94 | 76 | 1006.5 |
| 20260508010642 | 11 | 225 | 19.3 | 29.0 | 0.00 | 0.00 | 0.94 | 76 | 1006.5 |
| 20260508005113 | 11 | 225 | 14.5 | 29.0 | 0.00 | 0.00 | 0.94 | 75 | 1006.7 |
| 20260508004603 | 11 | 225 | 14.5 | 25.7 | 0.00 | 0.00 | 0.94 | 75 | 1006.8 |
| 20260508004052 | 11 | 203 | 16.1 | 27.4 | 0.00 | 0.00 | 0.94 | 75 | 1006.8 |
| 20260508003549 | 11 | 225 | 14.5 | 35.4 | 0.00 | 0.00 | 0.94 | 75 | 1006.7 |
| 20260508003032 | 11 | 225 | 19.3 | 37.0 | 0.00 | 0.00 | 0.94 | 75 | 1006.7 |
| 20260508002522 | 11 | 225 | 22.5 | 37.0 | 0.00 | 0.00 | 0.94 | 75 | 1006.6 |
| 20260508002011 | 11 | 225 | 17.7 | 32.2 | 0.00 | 0.00 | 0.94 | 74 | 1006.6 |
| 20260508001502 | 11 | 203 | 14.5 | 35.4 | 0.00 | 0.00 | 0.94 | 74 | 1006.7 |
| 20260508000951 | 11 | 203 | 17.7 | 38.6 | 0.00 | 0.00 | 0.94 | 74 | 1006.7 |
| 20260508000442 | 12 | 203 | 14.5 | 38.6 | 0.00 | 0.00 | 0.94 | 74 | 1006.7 |
| 20260507235932 | 12 | 225 | 24.1 | 38.6 | 0.00 | 0.00 | 0.94 | 73 | 1006.6 |
| 20260507234910 | 12 | 203 | 20.9 | 43.5 | 0.00 | 0.00 | 0.94 | 74 | 1006.5 |
| 20260507234400 | 12 | 225 | 27.4 | 43.5 | 0.00 | 0.00 | 0.94 | 74 | 1006.4 |
| 20260507233850 | 12 | 203 | 24.1 | 54.7 | 0.00 | 0.00 | 0.94 | 72 | 1006.4 |
| 20260507233342 | 12 | 203 | 27.4 | 54.7 | 0.00 | 0.00 | 0.94 | 72 | 1006.5 |
| 20260507232830 | 12 | 203 | 32.2 | 54.7 | 0.00 | 0.00 | 0.94 | 72 | 1006.6 |
| 20260507232320 | 12 | 203 | 40.2 | 62.8 | 0.00 | 0.00 | 0.94 | 72 | 1006.5 |
| 20260507231300 | 12 | 225 | 35.4 | 43.5 | 0.00 | 0.00 | 0.94 | 72 | 1006.4 |
| 20260507230751 | 12 | 225 | 17.7 | 40.2 | 0.00 | 0.00 | 0.94 | 72 | 1006.4 |
| 20260507230239 | 12 | 203 | 20.9 | 38.6 | 0.00 | 0.00 | 0.94 | 72 | 1006.4 |
| 20260507225729 | 12 | 203 | 20.9 | 38.6 | 0.00 | 0.00 | 0.94 | 72 | 1006.3 |
| 20260507225219 | 12 | 203 | 24.1 | 38.6 | 0.00 | 0.00 | 0.94 | 72 | 1006.2 |
| 20260507224709 | 13 | 225 | 24.1 | 43.5 | 0.00 | 0.00 | 0.94 | 71 | 1006.0 |
| 20260507224159 | 13 | 203 | 17.7 | 43.5 | 0.00 | 0.00 | 0.94 | 71 | 1005.8 |
| 20260507223648 | 13 | 203 | 17.7 | 40.2 | 0.00 | 0.00 | 0.94 | 71 | 1005.6 |
| 20260507222628 | 13 | 203 | 17.7 | 40.2 | 0.00 | 0.00 | 0.94 | 70 | 1005.4 |
| 20260507222119 | 13 | 225 | 32.2 | 40.2 | 0.00 | 0.00 | 0.94 | 69 | 1005.1 |
| 20260507221058 | 13 | 203 | 12.9 | 35.4 | 0.00 | 0.00 | 0.94 | 70 | 1004.8 |
| 20260507220547 | 13 | 225 | 20.9 | 43.5 | 0.00 | 0.00 | 0.94 | 69 | 1004.7 |
| 20260507220038 | 13 | 225 | 22.5 | 43.5 | 0.00 | 0.00 | 0.94 | 69 | 1004.8 |
| 20260507215528 | 13 | 225 | 25.7 | 35.4 | 0.00 | 0.00 | 0.94 | 69 | 1004.6 |
| 20260507215018 | 13 | 225 | 17.7 | 32.2 | 0.00 | 0.00 | 0.94 | 69 | 1004.5 |
| 20260507214511 | 13 | 203 | 17.7 | 37.0 | 0.00 | 0.00 | 0.94 | 69 | 1004.3 |
| 20260507213957 | 13 | 225 | 17.7 | 37.0 | 0.00 | 0.00 | 0.94 | 69 | 1004.2 |
| 20260507213447 | 13 | 225 | 27.4 | 40.2 | 0.00 | 0.00 | 0.94 | 67 | 1003.8 |
| 20260507212936 | 13 | 225 | 22.5 | 40.2 | 0.00 | 0.00 | 0.94 | 67 | 1003.8 |
| 20260507212427 | 13 | 203 | 22.5 | 35.4 | 0.00 | 0.00 | 0.94 | 68 | 1003.7 |
| 20260507211916 | 13 | 203 | 27.4 | 38.6 | 0.00 | 0.00 | 0.94 | 68 | 1004.2 |
| 20260507211406 | 13 | 225 | 20.9 | 43.5 | 0.00 | 0.00 | 0.94 | 68 | 1004.4 |
| 20260507210856 | 13 | 225 | 24.1 | 43.5 | 0.00 | 0.00 | 0.94 | 68 | 1004.4 |
| 20260507210346 | 13 | 203 | 17.7 | 43.5 | 0.00 | 0.00 | 0.94 | 69 | 1004.3 |
| 20260507205835 | 13 | 293 | 33.8 | 43.5 | 0.00 | 0.00 | 0.94 | 67 | 1004.4 |
| 20260507205328 | 13 | 225 | 17.7 | 43.5 | 0.00 | 0.00 | 0.94 | 68 | 1004.5 |
| 20260507204816 | 13 | 203 | 24.1 | 43.5 | 0.00 | 0.00 | 0.94 | 69 | 1004.5 |
| 20260507204305 | 13 | 180 | 32.2 | 43.5 | 0.00 | 0.00 | 0.94 | 67 | 1004.4 |
| 20260507203756 | 13 | 158 | 19.3 | 37.0 | 0.00 | 0.00 | 0.94 | 69 | 1004.5 |
| 20260507203245 | 13 | 203 | 17.7 | 43.5 | 0.00 | 0.00 | 0.94 | 70 | 1004.6 |
| 20260507202743 | 13 | 225 | 20.9 | 48.3 | 0.00 | 0.00 | 0.94 | 69 | 1004.6 |
| 20260507201714 | 13 | 248 | 27.4 | 46.7 | 0.00 | 0.00 | 0.94 | 70 | 1004.6 |
| 20260507201204 | 13 | 248 | 27.4 | 43.5 | 0.00 | 0.00 | 0.94 | 71 | 1004.5 |
| 20260507195124 | 13 | 225 | 35.4 | 51.5 | 0.00 | 0.00 | 0.94 | 71 | 1003.7 |
| 20260507194615 | 13 | 225 | 38.6 | 51.5 | 0.00 | 0.00 | 0.94 | 70 | 1003.6 |
| 20260507194103 | 14 | 203 | 32.2 | 51.5 | 0.00 | 0.00 | 0.94 | 70 | 1003.6 |
| 20260507193554 | 14 | 225 | 33.8 | 54.7 | 0.00 | 0.00 | 0.94 | 70 | 1003.5 |
| 20260507193044 | 14 | 225 | 33.8 | 64.4 | 0.00 | 0.00 | 0.94 | 70 | 1003.3 |
| 20260507192534 | 14 | 225 | 49.9 | 64.4 | 0.00 | 0.00 | 0.94 | 69 | 1003.1 |
| 20260507192024 | 14 | 203 | 54.7 | 64.4 | 0.00 | 0.00 | 0.94 | 69 | 1002.7 |
| 20260507185432 | 14 | 203 | 37.0 | 51.5 | 0.00 | 0.00 | 0.94 | 69 | 1003.0 |
| 20260507184921 | 14 | 225 | 37.0 | 48.3 | 0.00 | 0.00 | 0.94 | 69 | 1002.8 |
| 20260507183902 | 14 | 225 | 43.5 | 49.9 | 0.00 | 0.00 | 0.94 | 68 | 1003.2 |
| 20260507183351 | 14 | 225 | 33.8 | 49.9 | 0.00 | 0.00 | 0.94 | 67 | 1003.5 |
| 20260507182842 | 14 | 203 | 40.2 | 54.7 | 0.00 | 0.00 | 0.94 | 67 | 1003.4 |
| 20260507182331 | 14 | 225 | 41.8 | 57.9 | 0.00 | 0.00 | 0.94 | 67 | 1003.7 |
| 20260507181817 | 15 | 135 | 40.2 | 57.9 | 0.00 | 0.00 | 0.94 | 66 | 1004.1 |
| 20260507181309 | 15 | 203 | 35.4 | 48.3 | 0.00 | 0.00 | 0.94 | 67 | 1004.2 |
| 20260507180802 | 15 | 203 | 33.8 | 51.5 | 0.00 | 0.00 | 0.94 | 66 | 1004.4 |
| 20260507180251 | 15 | 203 | 32.2 | 51.5 | 0.00 | 0.00 | 0.94 | 65 | 1004.4 |